OV1-5 R/B, 2123

Orbit data source: Space-Track

OV1-5 R/B, 2123 is space debris in LEO originally from a launch on Wed, 30 Mar 1966 UTC launched from the Air Force Western Test Range (AFWTR). Debris objects in space refer to the collection of defunct objects orbiting the Earth. Examples of debris include non-operational satellites, rocket bodies, and fragments generated from explosions, collisions, or faulty payload assembly.

Loading next visibility...
Identifier
2123, 1966-025C
Orbit
LEO
Country
Flag of USUS
Related business
Manufacturer
ABL
Mission
Spacecraft
Bus & Motor
ALTAIR, Unknown motor
Mass
~125 kg wet, ~125 kg dry
Launch date (UTC)
1966-03-30 (60 years ago)
Launch vehicle
Unknown
Launch site
Air Force Western Test Range (AFWTR)
Object type
Payload
Rocket body
Debris
Shape & HBR
Unknown
Radar Cross Section
Medium (>0.1 m² and <1 m²)

Expand to show TLE details & history
Last TLE update: 5 hours ago

TLE from 5 hours ago
0 OV1-5 R/B
1  2123U 66025C   26127.79480155  .00000301  00000-0  51504-4 0  9997
2  2123 144.6402  88.2739 0046702 352.0810   7.9128 13.65897379999266
Epoch: 2026-05-07T19:04Z
TLE epoch observation values (Epoch: 2026-05-07T19:04:30.853Z)
Latitude
-0.00004°
Longitude
-63.49043°
Altitude
979.17 km
Speed
7.381 km/s
True Right ascension
05h 53m 05s
True Declination
0° 00' 00"
Sunlit
Object was in daylight at epoch
Visualization orbit readout
Latitude
Unknown
Longitude
Unknown
Altitude
Unknown
Speed
Unknown
Apparent Right ascension
Unknown
Apparent Declination
Unknown
Sunlit
N/A
Visualization observer readout
Local Sidereal Time
08:09:01
Azimuth
Unknown
Elevation
Unknown
Doppler factor
Unknown
Orbital elements
Apogee altitude
1,051.845 km
Perigee altitude
982.769 km
Semi-major axis
7,395.444 km
Eccentricity
0.00467
Inclination
144.6402°
RAAN
88.2739°
Arg. of periapsis
352.081°
True anomaly
7.9869°
Mean anomaly
7.9128°
Eccentric anomaly
7.94981°
Mean motion
3.41269 °/min
Orbital period
105.49 mins
BSTAR
0.000051504
Loading maneuver chart data...
Computing Atmospheric mass density...
Loading historical data...
Loading historical data...
Loading historical data...
Loading historical data...
Loading historical data...
Loading historical data...
Loading historical data...

Documentation

Showing up to 5 results
|